Regional Weather Roundup
Issued by NWS Albany, NY

Home | Current Version | Previous Version | Text Only | Print | Product List | Glossary On
Versions: 1 2 3 4 5 6 7 8 9 10 11 12 13 14 15 16 17 18 19 20 21 22 23 24 25 26 27 28 29 30 31 32 33 34 35 36 37 38 39 40 41 42 43 44 45 46 47 48 49 50
262
ASUS41 KALY 171410
RWRALY

NEW YORK STATE HOURLY WEATHER ROUNDUP
NATIONAL WEATHER SERVICE ALBANY NY
900 AM EST SAT FEB 17 2018

NOTE: "FAIR" INDICATES FEW OR NO CLOUDS BELOW 12,000 FEET WITH NO
SIGNIFICANT WEATHER AND/OR NO OBSTRUCTIONS TO VISIBILITY.

NYZ032-033-038>043-046>054-057>066-NYZ062>081-082-084-171500-
EAST


CITY           SKY/WX    TMP DP  RH WIND       PRES   REMARKS
ALBANY         FAIR      27  14  58 NW8       30.39F WCI  19
GLENS FALLS    FAIR      20  10  65 CALM      30.38F
POUGHKEEPSIE   FAIR      29  16  58 CALM      30.41R
NEWBURGH       MOSUNNY   27  19  74 CALM      30.40S
MONTGOMERY     FAIR      27  15  61 S6        30.39S WCI  20
WHITE PLAINS   FAIR      30  17  58 N5        30.39S WCI  25
ISLIP          PTSUNNY   34  19  54 NE7       30.41S WCI  28
NEW YORK CITY  PTSUNNY   33  17  51 N6        30.42S WCI  28
CENTRAL PARK   FAIR      32  16  51 CALM      30.44S
$$

NYZ005>009-017-018-044>046-055-056-171500-
CENTRAL


CITY           SKY/WX    TMP DP  RH WIND       PRES   REMARKS
FULTON         FAIR      26  17  68 S10       30.32F WCI  16
SYRACUSE       PTSUNNY   25  17  72 S6        30.33F WCI  18
ROME           FAIR      24  17  74 SE5       30.36F WCI  18
ELMIRA         FAIR      22  17  81 CALM      30.31S
BINGHAMTON     FAIR      20  12  71 S6        30.27R WCI  12
MONTICELLO     FAIR      21  14  74 SE5       30.33S WCI  15
$$

NYZ026>034-041>043-087-171500-
NORTH


CITY           SKY/WX    TMP DP  RH WIND       PRES   REMARKS
WATERTOWN      FAIR      23  15  71 VRB3      30.32F
FORT DRUM      NOT AVBL
OGDENSBURG     FAIR      18  16  90 MISG      30.32F
MASSENA        FAIR      18  11  74 S13       30.34S WCI   5
SARANAC LAKE   FAIR      13   9  84 SW12      30.22F WCI  -1
PLATTSBURGH    FAIR      23   8  52 S6        30.34F WCI  16
$$

NYZ001>004-010>016-019>021-085-171500-
WEST


CITY           SKY/WX    TMP DP  RH WIND       PRES   REMARKS
NIAGARA FALLS  FAIR      27  16  63 S13       30.26S WCI  16
BUFFALO        PTSUNNY   26  17  68 S9        30.26F WCI  17
DUNKIRK        FAIR      25  15  66 S12       30.27F WCI  14
JAMESTOWN        N/A    N/A N/A N/A MISG        N/A
WELLSVILLE     FAIR      22  15  75 CALM      30.21S
ROCHESTER      PTSUNNY   25  17  72 SW7       30.31S WCI  17
PENN YAN       FAIR      22  14  71 SW5       30.30F WCI  16
$$

             KEY
       WCI = WIND CHILL INDEX
       VSB = VISIBILITY
       HX  = HEAT INDEX
$$




USA.gov is the U.S. government's official web portal to all federal, state and local government web resources and services.